Date String (YYYY-MM-DD hh:mm:ss) UTC,Instrument flags,Ambient pressure (hPa),Sample flow (lpm),Bypass flow (lpm),Sample temperature (°C),Ambient temperature (°C),ASC tube jacket temperature (°C),LED temperature (°C),Box temperature (°C),Sample RH (%),Span deviation,Mass concentration (μg/m³),Mass concentration (μg/m³),Mass concentration (μg/m³)
DateTimeUTC,F1_M11,P_M11,Q1_M11,Q2_M11,T1_M11,T2_M11,T3_M11,T4_M11,T5_M11,U1_M11,ZSPAN_M11,X0_M11,X2_M11,X1_M11
2022-05-14 23:00:00,,0824.6,5.00,0.00,29.4,27.1,00.0,38.3,31.2,09.3,0000.0,0010.15,0003.21,0001.89
2022-05-14 23:01:00,,0824.6,5.00,0.00,29.5,27.4,00.0,38.3,31.3,09.7,0000.0,0010.19,0003.19,0001.89
2022-05-14 23:02:00,,0824.7,5.00,0.00,29.5,27.7,00.0,38.3,31.3,09.6,0000.0,0009.72,0003.16,0001.90
2022-05-14 23:03:00,,0824.6,5.00,0.00,29.5,28.0,00.0,38.3,31.4,09.2,0000.0,0008.72,0003.13,0001.89
2022-05-14 23:04:00,,0824.6,5.01,0.00,29.6,28.2,00.0,38.3,31.4,09.2,0000.0,0008.51,0003.10,0001.89
2022-05-14 23:05:00,,0824.6,4.99,0.00,29.6,28.3,00.0,38.4,31.5,09.3,0000.0,0008.42,0003.08,0001.89
2022-05-14 23:06:00,,0824.6,5.00,0.00,29.6,28.5,00.0,38.4,31.5,09.4,0000.0,0008.12,0003.10,0001.90
2022-05-14 23:07:00,,0824.6,5.01,0.00,29.6,27.4,00.0,38.4,31.3,09.5,0000.0,0007.90,0003.13,0001.92
2022-05-14 23:08:00,,0824.6,5.00,0.00,29.5,25.3,00.0,38.4,30.8,09.6,0000.0,0008.05,0003.17,0001.93
2022-05-14 23:09:00,,0824.6,5.00,0.00,29.4,25.1,00.0,38.4,30.7,09.9,0000.0,0007.97,0003.22,0001.91
2022-05-14 23:10:00,,0824.6,4.98,0.00,29.3,25.6,00.0,38.3,30.8,09.5,0000.0,0008.14,0003.24,0001.91
2022-05-14 23:11:00,,0824.6,5.01,0.00,29.3,26.1,00.0,38.3,30.9,09.5,0000.0,0008.13,0003.24,0001.89
2022-05-14 23:12:00,,0824.7,4.99,0.00,29.3,26.6,00.0,38.2,31.0,09.7,0000.0,0008.13,0003.26,0001.89
2022-05-14 23:13:00,,0824.7,5.01,0.00,29.3,27.0,00.0,38.2,31.1,10.1,0000.0,0007.93,0003.27,0001.87
2022-05-14 23:14:00,,0824.7,5.01,0.00,29.3,27.4,00.0,38.2,31.1,09.9,0000.0,0007.98,0003.28,0001.85
2022-05-14 23:15:00,,0824.9,5.00,0.00,29.3,27.7,00.0,38.2,31.2,09.6,0000.0,0007.97,0003.27,0001.83
2022-05-14 23:16:00,,0824.8,4.99,0.00,29.4,28.0,00.0,38.2,31.3,09.6,0000.0,0007.97,0003.28,0001.82
2022-05-14 23:17:00,,0824.8,5.01,0.00,29.4,28.2,00.0,38.2,31.3,09.6,0000.0,0007.92,0003.27,0001.80
2022-05-14 23:18:00,,0824.8,5.00,0.00,29.5,28.3,00.0,38.3,31.4,09.6,0000.0,0008.16,0003.28,0001.80
2022-05-14 23:19:00,,0824.8,4.98,0.00,29.5,28.4,00.0,38.3,31.4,09.3,0000.0,0007.97,0003.27,0001.80
2022-05-14 23:20:00,,0824.8,5.01,0.00,29.6,28.6,00.0,38.3,31.5,09.5,0000.0,0008.07,0003.27,0001.80
2022-05-14 23:21:00,,0824.7,5.00,0.00,29.6,28.7,00.0,38.3,31.5,09.4,0000.0,0008.21,0003.26,0001.80
2022-05-14 23:22:00,,0824.8,5.00,0.00,29.6,28.4,00.0,38.4,31.4,09.8,0000.0,0008.20,0003.27,0001.81
2022-05-14 23:23:00,,0824.7,5.00,0.00,29.6,26.2,00.0,38.4,31.0,10.2,0000.0,0008.22,0003.31,0001.81
2022-05-14 23:24:00,,0824.7,5.00,0.00,29.4,25.1,00.0,38.3,30.7,09.8,0000.0,0008.21,0003.32,0001.82
2022-05-14 23:25:00,,0824.7,5.00,0.00,29.3,25.5,00.0,38.3,30.8,10.0,0000.0,0008.19,0003.31,0001.84
2022-05-14 23:26:00,,0824.7,5.00,0.00,29.3,26.0,00.0,38.2,30.9,09.4,0000.0,0008.20,0003.30,0001.83
2022-05-14 23:27:00,,0824.8,4.99,0.00,29.3,26.5,00.0,38.2,30.9,09.1,0000.0,0008.41,0003.30,0001.83
2022-05-14 23:28:00,,0824.8,4.98,0.00,29.3,26.9,00.0,38.2,31.0,09.4,0000.0,0009.20,0003.36,0001.83
2022-05-14 23:29:00,,0824.9,5.01,0.00,29.3,27.4,00.0,38.2,31.1,09.6,0000.0,0009.04,0003.36,0001.84
2022-05-14 23:30:00,,0824.9,5.00,0.00,29.3,27.7,00.0,38.2,31.2,10.1,0000.0,0008.31,0003.32,0001.84
2022-05-14 23:31:00,,0824.9,5.00,0.00,29.4,28.0,00.0,38.2,31.3,10.3,0000.0,0008.15,0003.31,0001.84
2022-05-14 23:32:00,,0824.9,4.99,0.00,29.4,28.2,00.0,38.2,31.3,10.9,0000.0,0008.13,0003.36,0001.88
2022-05-14 23:33:00,,0824.9,5.00,0.00,29.5,28.4,00.0,38.2,31.4,11.3,0000.0,0008.09,0003.41,0001.91
2022-05-14 23:34:00,,0824.9,5.00,0.00,29.5,28.6,00.0,38.3,31.4,11.3,0000.0,0008.94,0003.46,0001.94
2022-05-14 23:35:00,,0824.9,5.00,0.00,29.6,28.7,00.0,38.3,31.5,11.5,0000.0,0009.08,0003.49,0001.98
2022-05-14 23:36:00,,0824.9,4.99,0.00,29.6,28.9,00.0,38.3,31.6,11.7,0000.0,0009.15,0003.56,0002.02
2022-05-14 23:37:00,,0824.9,5.01,0.00,29.7,28.4,00.0,38.4,31.5,11.8,0000.0,0009.23,0003.62,0002.11
2022-05-14 23:38:00,,0824.9,4.99,0.00,29.6,26.1,00.0,38.4,31.0,11.5,0000.0,0009.38,0003.74,0002.21
2022-05-14 23:39:00,,0824.9,5.01,0.00,29.4,25.1,00.0,38.3,30.7,11.1,0000.0,0008.85,0003.81,0002.28
2022-05-14 23:40:00,,0824.9,5.00,0.00,29.3,25.5,00.0,38.3,30.8,11.1,0000.0,0009.49,0003.87,0002.34
2022-05-14 23:41:00,,0824.9,5.00,0.00,29.3,25.9,00.0,38.3,30.9,11.3,0000.0,0010.13,0003.94,0002.44
2022-05-14 23:42:00,,0824.9,5.00,0.00,29.2,26.5,00.0,38.2,30.9,11.3,0000.0,0010.70,0003.99,0002.52
2022-05-14 23:43:00,,0824.9,4.99,0.00,29.3,26.9,00.0,38.2,31.0,11.7,0000.0,0011.00,0004.00,0002.60
2022-05-14 23:44:00,,0824.9,4.99,0.00,29.3,27.3,00.0,38.2,31.1,11.3,0000.0,0011.15,0004.03,0002.67
2022-05-14 23:45:00,,0824.9,5.00,0.00,29.3,27.7,00.0,38.2,31.2,10.9,0000.0,0010.77,0004.02,0002.73
2022-05-14 23:46:00,,0824.9,5.00,0.00,29.4,27.9,00.0,38.2,31.3,11.1,0000.0,0010.97,0003.99,0002.78
2022-05-14 23:47:00,,0824.9,5.00,0.00,29.4,28.2,00.0,38.2,31.3,11.4,0000.0,0011.78,0004.06,0002.83
2022-05-14 23:48:00,,0824.9,5.01,0.00,29.5,28.4,00.0,38.3,31.4,11.9,0000.0,0012.46,0004.09,0002.85
2022-05-14 23:49:00,,0824.9,5.00,0.00,29.5,28.6,00.0,38.3,31.5,11.1,0000.0,0012.89,0004.10,0002.86
2022-05-14 23:50:00,,0824.9,5.00,0.00,29.6,28.7,00.0,38.3,31.5,10.6,0000.0,0013.02,0004.09,0002.88
2022-05-14 23:51:00,,0824.9,5.00,0.00,29.6,28.8,00.0,38.3,31.6,11.0,0000.0,0012.96,0004.08,0002.91
2022-05-14 23:52:00,,0824.9,5.00,0.00,29.7,28.2,00.0,38.4,31.4,11.5,0000.0,0012.79,0004.12,0002.94
2022-05-14 23:53:00,,0824.9,5.00,0.00,29.5,25.9,00.0,38.4,30.9,11.5,0000.0,0012.90,0004.13,0002.96
2022-05-14 23:54:00,,0824.9,5.00,0.00,29.4,25.0,00.0,38.3,30.7,11.6,0000.0,0012.90,0004.15,0002.97
2022-05-14 23:55:00,,0824.9,5.01,0.00,29.3,25.4,00.0,38.3,30.8,11.8,0000.0,0013.32,0004.13,0003.00
2022-05-14 23:56:00,,0824.9,5.00,0.00,29.2,25.9,00.0,38.2,30.8,11.7,0000.0,0013.43,0004.15,0003.05
2022-05-14 23:57:00,,0824.9,5.00,0.00,29.2,26.4,00.0,38.2,30.9,11.8,0000.0,0013.49,0004.27,0003.13
2022-05-14 23:58:00,,0824.9,5.00,0.00,29.3,26.9,00.0,38.2,31.0,12.2,0000.0,0013.59,0004.29,0003.17
2022-05-14 23:59:00,,0824.9,4.98,0.00,29.3,27.3,00.0,38.2,31.1,11.7,0000.0,0013.91,0004.38,0003.22
